Weather History for Laurinburg-Maxton, NC

Change the Weather History Date:

Saturday, August 3, 2013

  Actual Average (KLBT) Record (KLBT)
Temperature  
Mean Temperature 82 °F 80 °F  
Max Temperature 90 °F 90 °F 100 °F (2011)
Min Temperature 73 °F 71 °F 62 °F (2001)
Degree Days  
Heating Degree Days 0 0  
Month to date heating degree days 0  
Since 1 June heating degree days 0  
Since 1 July heating degree days 0  
Cooling Degree Days 16 15  
Month to date cooling degree days 47  
Year to date cooling degree days 1185  
Since 1 June cooling degree days 935  
Growing Degree Days 32 (Base 50)    
Moisture  
Dew Point 73 °F    
Average Humidity 83    
Maximum Humidity 100    
Minimum Humidity 55    
Precipitation  
Precipitation 0.00 in 0.18 in 0.75 in (2003)
Month to date precipitation 0.54  
Year to date precipitation 25.43  
Sea Level Pressure  
Sea Level Pressure 30.00 in    
Wind  
Wind Speed 6 mph (SW)    
Max Wind Speed 9 mph    
Max Gust Speed 16 mph    
Visibility 8 miles    
Events      
T = Trace of Precipitation, MM = Missing Value Source: NWS Daily Summary

Daily Weather History Graph

Daily Weather History Graph

Search for Another Location

Airport:

Trip Planner

Search our weather history database for the weather conditions in past years. The results will help you decide how hot, cold, wet, or windy it might be!

Date:

Astronomy

Aug. 03, 2013 Rise Set
Actual Time 6:28 AM EDT 8:17 PM EDT
Civil Twilight 6:01 AM EDT 8:45 PM EDT
Nautical Twilight 5:28 AM EDT 9:18 PM EDT
Astronomical Twilight 4:52 AM EDT 9:53 PM EDT
Moon 3:38 AM EDT (8/3) 5:57 PM EDT (8/3)
Length of Visible Light 14h 43m
Length of Day
13h 48m
Waning Crescent, 9% of the Moon is Illuminated
Aug 3
Waning Crescent
Aug 6
New
Aug 14
First Quarter
Aug 20
Full
Aug 28
Last Quarter

Hourly Weather History & Observations

Time (EDT) Temp. Heat Index Dew Point Humidity Pressure Visibility Wind Dir Wind Speed Gust Speed Precip Events Conditions
12:52 AM 75.9 °F - 73.9 °F 94% 30.04 in 10.0 mi SW 8.1 mph - N/A   Clear
1:52 AM 75.0 °F - 73.9 °F 96% 30.02 in 10.0 mi SW 5.8 mph - N/A   Clear
2:52 AM 73.9 °F - 73.0 °F 97% 30.01 in 8.0 mi SSW 4.6 mph - N/A   Clear
3:52 AM 73.0 °F - 73.0 °F 100% 30.01 in 6.0 mi SSW 3.5 mph - N/A   Clear
4:52 AM 73.0 °F - 72.0 °F 96% 30.01 in 5.0 mi SSW 3.5 mph - N/A   Clear
5:52 AM 73.0 °F - 72.0 °F 96% 30.02 in 5.0 mi SW 3.5 mph - N/A   Clear
6:52 AM 73.0 °F - 73.0 °F 100% 30.03 in 5.0 mi SSW 4.6 mph - N/A   Clear
7:38 AM 73.4 °F - 73.4 °F 100% 30.04 in 4.0 mi South 4.6 mph - N/A   Partly Cloudy
7:52 AM 73.9 °F - 73.9 °F 100% 30.04 in 5.0 mi SSW 5.8 mph - N/A   Mostly Cloudy
8:27 AM 75.2 °F - 73.4 °F 94% 30.05 in 5.0 mi SSW 5.8 mph - N/A   Mostly Cloudy
8:39 AM 75.2 °F - 73.4 °F 94% 30.05 in 5.0 mi SW 4.6 mph - N/A   Scattered Clouds
8:52 AM 77.0 °F - 75.0 °F 94% 30.04 in 9.0 mi WSW 5.8 mph - N/A   Mostly Cloudy
9:52 AM 80.1 °F 84.5 °F 73.9 °F 81% 30.04 in 10.0 mi WSW 8.1 mph - N/A   Partly Cloudy
10:39 AM 80.6 °F 85.4 °F 73.4 °F 79% 30.04 in 10.0 mi SW 8.1 mph - N/A   Mostly Cloudy
10:52 AM 81.0 °F 86.2 °F 73.9 °F 79% 30.03 in 10.0 mi SW 5.8 mph - N/A   Scattered Clouds
11:08 AM 80.6 °F 85.4 °F 73.4 °F 79% 30.04 in 10.0 mi SW 8.1 mph - N/A   Mostly Cloudy
11:50 AM 82.4 °F 88.2 °F 73.4 °F 74% 30.03 in 10.0 mi WSW 5.8 mph - N/A   Mostly Cloudy
11:52 AM 82.0 °F 87.9 °F 73.9 °F 76% 30.02 in 10.0 mi WSW 5.8 mph - N/A   Mostly Cloudy
12:52 PM 86.0 °F 93.8 °F 73.9 °F 67% 30.01 in 10.0 mi SSW 8.1 mph - N/A   Mostly Cloudy
1:52 PM 88.0 °F 96.5 °F 73.9 °F 63% 29.99 in 10.0 mi WSW 8.1 mph - N/A   Scattered Clouds
2:52 PM 89.1 °F 97.0 °F 73.0 °F 59% 29.97 in 10.0 mi WSW 9.2 mph 16.1 mph N/A   Scattered Clouds
3:52 PM 90.0 °F 96.9 °F 72.0 °F 55% 29.95 in 10.0 mi WSW 6.9 mph 16.1 mph N/A   Partly Cloudy
4:52 PM 87.1 °F 93.6 °F 72.0 °F 61% 29.93 in 10.0 mi SW 8.1 mph - N/A   Scattered Clouds
5:52 PM 86.0 °F 93.0 °F 73.0 °F 65% 29.93 in 10.0 mi WSW 6.9 mph - N/A   Partly Cloudy
6:52 PM 87.1 °F 94.5 °F 73.0 °F 63% 29.92 in 10.0 mi WSW 5.8 mph - N/A   Clear
7:52 PM 82.9 °F 89.4 °F 73.9 °F 74% 29.93 in 10.0 mi SW 3.5 mph - N/A   Clear
8:52 PM 79.0 °F - 75.0 °F 88% 29.94 in 9.0 mi WSW 3.5 mph - N/A   Clear
9:52 PM 77.0 °F - 73.9 °F 90% 29.95 in 8.0 mi West 5.8 mph - N/A   Partly Cloudy
10:52 PM 77.0 °F - 73.0 °F 88% 29.96 in 8.0 mi West 3.5 mph - N/A   Clear
11:52 PM 75.0 °F - 73.0 °F 94% 29.96 in 7.0 mi Calm Calm - N/A   Clear